Starlink 30141

operational
NORAD ID: 57620 Int'l Des: 2023-119 Owner: SPXS Country: US Constellation: starlink
LEOCIRCULAR

关于 Starlink 30141

正在加载描述...

实时位置

正在加载3D地球...

即将过境

高度历史

Altitude vs Time

uPlot chart will show altitude changes over time

两行轨道根数

1 57620U 23119U 25304.73033573 .00000117 00000-0 23759-4 0 9990
2 57620 43.0050 62.6307 0001150 273.1714 86.8996 15.02536644123682
Epoch: Oct 31, 2025 • Age: 18 hours

当前状态

高度 559.7 km
速度 7.59 km/s
星下点 26.15°N, 9.54°W
发射日期 Aug 11, 2023
运行时间 2.2 years
类型 internet

技术详情

分类 Payload
质量 730.00 kg
干质量 700.00 kg
总质量 730.00 kg
长度 0.30 m
直径 4.10 m
跨度 29.00 m
形状 Box + pan
制造商 SPXS
平台类型 Starlink V2M
阶段状态 In Orbit
所有者/国家 SPXS/US

大型星座

Loading constellations...